EWS-G1 (GOES 13)

Last updated on Oct. 30, 2020, 5:56 a.m. UTC

1 29155U 06018A   20303.87276274  .00000037  00000-0  00000-0 0  9998
2 29155   0.1739 116.6255 0008976  99.7376 198.1409  1.00275938 22743
UTC
Height (km)
Latitude
Longitude
Inclination
Orbital Period
UTC large
Height (km)
Speed (km/s)
/
Latitude / Longitude
Inclination (degrees)
Orbital Period (minutes)
Azimuth
Elevation
Range (km)
Doppler Factor
iOS Compass Heading
iOS Angle

Next 30 passes for location: Hong Kong

Rise time Rise Azimuth (degrees) Set time Set Azimuth (degrees) Duration Max altitude (degrees)

No matching passes for this satellites